Location: Eppenbrunn
(49.1158°N, 7.5601°E)
Time: 17:34:41
(UTC+00:00)

Cosmos 1727 Rocket - Pass Details

Date: 09 April 2020
Orbit: 961 x 997 km, 82.9° (Epoch: 24 May)

Event Time Altitude Azimuth Distance (km) Brightness Sun altitude
Exits shadow 22:05:53 51° 66° (ENE) 1,236 4.4 -29.9°
Drops below altitude 10° 22:11:15 10° 17° (NNE) 2,769 6.9 -30.2°
Sets 22:13:51 0° 13° (NNE) 3,725 7.8 -30.4°
